STARLINK-38279, 100262

Orbit data source: Space-Track

STARLINK-38279, 100262 is a payload satellite owned by SpaceX/Seattle (US) in SSO that was launched on Sat, 08 Aug 2026 UTC launched from the Air Force Western Test Range (AFWTR). Payload-class satellites include a variety of spacecraft equipped with specific instruments for various scientific and technological missions. These include communications satellites like Starlink; space stations such as the ISS; scientific satellites like the Hubble; Earth observation satellites from companies like Planet Labs, Umbra, and HawkEye 360; GPS; miniature CubeSats for education and research; and military/defense satellites.

Loading next visibility...
Identifier
100262, 2026-181S
Orbit
SSO
Country
Flag of USUS
Related business
Manufacturer
SpaceX/Seattle
Mission
Operational spacecraft
Bus & Motor
STARLINK V2MO, Unknown motor
Mass
575 kg wet, ~530 kg dry
Launch date (UTC)
2026-08-08 (1 month ago)
Launch vehicle
Unknown
Launch site
Air Force Western Test Range (AFWTR)
Object type
Payload
Rocket body
Debris
Shape & HBR
BOX + PAN, 17.7 m
Radar Cross Section
RCS unknown

Expand to show TLE details & history
Last TLE update: 7 hours ago

TLE from 7 hours ago
0 STARLINK-38279
1 A0262U 26181S   26249.60343702  .00180784  00000-0  11859-2 0  9990
2 A0262  97.2845 292.5271 0000742 119.9656 240.1683 15.75220872  5777
Epoch: 2026-09-06T14:28Z
TLE epoch observation values (Epoch: 2026-09-06T14:28:56.958Z)
Latitude
-0.00002°
Longitude
89.5936°
Altitude
347.419 km
Speed
7.7 km/s
True Right ascension
19h 30m 06s
True Declination
0° 00' 00"
Sunlit
Object was in full shadow at epoch
Visualization orbit readout
Latitude
Unknown
Longitude
Unknown
Altitude
Unknown
Speed
Unknown
Apparent Right ascension
Unknown
Apparent Declination
Unknown
Sunlit
N/A
Visualization observer readout
Local Sidereal Time
13:11:27
Azimuth
Unknown
Elevation
Unknown
Doppler factor
Unknown
Orbital elements
Apogee altitude
341.389 km
Perigee altitude
340.392 km
Semi-major axis
6,719.027 km
Eccentricity
0.00007
Inclination
97.2845°
RAAN
292.5271°
Arg. of periapsis
119.9656°
True anomaly
240.16092°
Mean anomaly
240.1683°
Eccentric anomaly
240.16461°
Mean motion
3.94079 °/min
Orbital period
91.35 mins
BSTAR
0.0011859
Loading maneuver chart data...
Computing Atmospheric mass density...
Loading historical data...
Loading historical data...
Loading historical data...
Loading historical data...
Loading historical data...
Loading historical data...
Loading historical data...

Documentation

Showing up to 5 results
|